Flag for U.S.A. Weather past 2 weeks in Clarksville, Tennessee, U.S.A.

Now
61 °F

Overcast.


Feels Like: 61 °F
Forecast: 55 / 74 °F
Wind: No wind

Location: Outlaw Field

Current Time: Sep 18, 2014 at 1:05:24 AM

Latest Report: Sep 17, 2014 at 11:52 PM


Visibility: 10 mi

Pressure: 29.97 "Hg

Humidity: 87%

Dew point: 57 °F

Location of ClarksvilleLocation

Historic Weather in Clarksville — Graph

°F

Clarksville temperature yesterday

Maximum temperature yesterday: 72 °F (at 2:52 PM)
Minimum temperature yesterday: 48 °F (at 6:00 AM)
Average temperature yesterday: 60 °F

Past Weeks' High & Low Weather Summary

 TemperatureHumidityPressure
High91 °F (Sep 5, 4:52 PM)100% (Sep 17, 8:52 AM)30.31 "Hg (Sep 17, 8:52 AM)
Low48 °F (Sep 17, 6:00 AM)41% (Sep 8, 4:52 PM)29.81 "Hg (Sep 10, 6:52 PM)
Average70 °F79%30.07 "Hg
* Reported Sep 2 11:52 PM — Sep 17 11:52 PM, Clarksville, Weather by CustomWeather, © 2014

Note: Actual official high and low records may vary slightly from our data, if they occured in-between our weather recording intervals... More about our weather records

Advertising

Clarksville weather history for previous 24 hours

 ConditionsComfort  
Time TempWeatherWind HumidityBarometerVisibility
11:52 PM
Sep 17
61 °FOvercast.No wind87%29.97 "Hg10 mi
10:52 PM60 °FPassing clouds.No wind86%29.98 "Hg9 mi
9:52 PM60 °FPassing clouds.No wind86%29.98 "Hg10 mi
8:52 PM62 °FPassing clouds.No wind80%29.96 "Hg10 mi
7:52 PM65 °FMostly cloudy.5 mph76%29.97 "Hg10 mi
6:52 PM66 °FPassing clouds.6 mph70%29.96 "Hg10 mi
5:52 PM69 °FSunny.3 mph57%29.94 "Hg10 mi
4:52 PM71 °FSunny.6 mph55%29.93 "Hg10 mi
3:52 PM71 °FPassing clouds.3 mph53%29.97 "Hg10 mi
2:52 PM72 °FSunny.3 mph52%29.97 "Hg10 mi
1:52 PM71 °FPassing clouds.7 mph57%30.01 "Hg10 mi
12:52 PM69 °FSunny.5 mph63%30.03 "Hg10 mi
11:52 AM66 °FPassing clouds.3 mph73%30.04 "Hg10 mi
10:59 AM59 °FFog.No wind90%30.05 "Hg5 mi
9:52 AM55 °FFog.No wind100%30.05 "Hg0 mi
8:52 AM53 °FFog.3 mph100%30.04 "Hg0 mi
7:52 AM52 °FFog.No wind97%30.04 "Hg0 mi
6:52 AM48 °FFog.3 mph96%30.04 "Hg1 mi
6:00 AM48 °FFog.3 mph96%30.05 "Hg1 mi
4:49 AM50 °FFog.3 mph96%30.04 "Hg3 mi
3:52 AM51 °FFog.3 mph96%30.04 "Hg4 mi
2:52 AM52 °FFog.5 mph93%30.06 "Hg5 mi
1:52 AM53 °FFog.3 mph93%30.07 "Hg6 mi
Weather by CustomWeather, © 2014

See weather overviewHow to use our weather pages